Weather in Uberlandia

Brazil     18°55′20″S   48°16′37″W
temp.,
°C
wind,
m/s
gust,
m/s
humid.,
%
clouds,
%
prec.,
mm/h
press.,
hPa
HPBL,
m
18 may, tue
tue1800:00+17ssw2357100 0.0 101743
03:00+17s365972 0.0 101695
06:00+15se226547 0.0 101714
09:00+22se2343100 0.0 1018428
12:00+27sw342756 0.0 10162306
15:00+28wsw442210 0.0 10132644
18:00+22sw33380 0.0 101431
21:00+19sse23510 0.0 101647
19 may, wed
wed1900:00+17ese11540 0.0 101612
03:00+16nw00600 0.0 101511
06:00+15e11630 0.0 101611
09:00+22ne21415 0.0 1017303
12:00+28wnw33265 0.0 10162230
15:00+29wnw22210 0.0 10122648
18:00+23ssw11310 0.0 101311
21:00+19sse01380 0.0 101511
20 may, thu
thu2000:00+18ese224345 0.0 101615
03:00+16ene224915 0.0 101522
06:00+15e22520 0.0 101616
09:00+23ne22310 0.0 1017266
12:00+29nnw33190 0.0 10152523
15:00+30wnw331667 0.0 10122899
18:00+23nnw222510 0.0 101227
21:00+20sse013112 0.0 101411
21 may, fri
fri2100:00+18ese22345 0.0 101517
03:00+17ene22385 0.0 101416
06:00+17ene33391 0.0 101535
09:00+25ne35300 0.0 1016307
12:00+30nnw442190 0.0 10132922
15:00+31nw442048 0.0 10103054
18:00+24nnw22292 0.0 101113
21:00+22sse003382 0.0 101311
22 may, sat
sat2200:00+20ene22385 0.0 101417
03:00+19ne3442100 0.0 101352
06:00+18nne3449100 0.0 101464
09:00+25n4536100 0.0 1015304
12:00+31nw5625100 0.0 10131935
15:00+31wnw5524100 0.0 10112940
18:00+26n2233100 0.0 101128
21:00+25sse353790 0.0 1013107